Home   Weather   Stornoway   Past weeks

Flag for United Kingdom Past Weather in Stornoway, Scotland, United Kingdom — Yesterday and Last 2 Weeks

Now
37 °F

Scattered showers. Passing clouds.


Feels Like: 29 °F
Forecast: 36 / 44 °F
Wind: 13 mph from North

Location: Stornoway

Current Time: Dec 11, 2017 at 11:44:46 am

Latest Report: Dec 11, 2017 at 10:50 am


Visibility: N/A

Pressure: 29.33 "Hg

Humidity: 93%

Dew Point: 36 °F

Location of StornowayLocation

Past Weather in Stornoway — Graph

°F

Stornoway Temperature Yesterday

Maximum temperature yesterday: 39 °F (at 9:50 pm)
Minimum temperature yesterday: 27 °F (at 3:20 am)
Average temperature yesterday: 33 °F

High & Low Weather Summary for the Past Weeks

 TemperatureHumidityPressure
High55 °F (Dec 6, 9:20 pm)100% (Dec 1, 9:20 am)30.36 "Hg (Dec 1, 9:20 am)
Low27 °F (Dec 10, 3:20 am)65% (Dec 7, 10:20 pm)28.88 "Hg (Dec 7, 5:20 am)
Average42 °F87%29.90 "Hg
* Reported Nov 26 10:20 am — Dec 11 10:20 am, Stornoway. Weather by CustomWeather, © 2017

Note: Actual official high and low records may vary slightly from our data, if they occured in-between our weather recording intervals... More about our weather records

Advertising

Stornoway Weather History for the Previous 24 Hours

Scroll right to see more
 ConditionsComfort  
Time TempWeatherWind HumidityBarometerVisibility
10:20 am
Mon, Dec 11
37 °FScattered showers. Passing clouds.10 mph87%29.33 "HgN/A
9:50 am39 °FScattered showers. Scattered clouds.21 mph87%29.30 "HgN/A
9:20 am39 °FScattered showers. Passing clouds.15 mph87%29.30 "HgN/A
8:50 am39 °FScattered showers. Passing clouds.18 mph87%29.30 "HgN/A
8:20 am37 °FScattered showers. Passing clouds.12 mph93%29.27 "HgN/A
7:50 am39 °FScattered showers. Passing clouds.15 mph87%29.27 "HgN/A
7:20 am37 °FScattered showers. Passing clouds.14 mph87%29.24 "HgN/A
6:50 am39 °FScattered showers. Passing clouds.16 mph87%29.24 "HgN/A
6:20 am39 °FSprinkles. Passing clouds.17 mph87%29.21 "HgN/A
5:50 am39 °FPassing clouds.16 mph87%29.21 "HgN/A
5:20 am39 °FLight rain. Passing clouds.9 mph87%29.18 "Hg6 mi
4:50 am37 °FLight rain. Passing clouds.12 mph93%29.18 "Hg5 mi
4:20 am36 °FPassing clouds.7 mph93%29.18 "HgN/A
3:50 am37 °FLight rain. Passing clouds.10 mph93%29.18 "Hg5 mi
3:20 am37 °FLight rain. Passing clouds.18 mph87%29.15 "HgN/A
2:50 am37 °FChilly.13 mph93%29.15 "Hg6 mi
2:20 am37 °FChilly.13 mph93%29.12 "Hg4 mi
1:50 am37 °FChilly.12 mph87%29.12 "HgN/A
1:20 am37 °FPassing clouds.14 mph93%29.09 "Hg6 mi
12:50 am41 °FLight rain. Passing clouds.18 mph87%29.09 "HgN/A
12:20 am39 °FLight rain. Passing clouds.22 mph87%29.09 "Hg2 mi
11:50 pm
Sun, Dec 10
37 °FPassing clouds.18 mph93%29.06 "HgN/A
11:20 pm37 °FChilly.14 mph87%29.06 "Hg4 mi
10:50 pm37 °FPassing clouds.12 mph87%29.06 "Hg5 mi
10:20 pm39 °FChilly.13 mph87%29.03 "Hg5 mi
9:50 pm39 °FPassing clouds.8 mph81%29.03 "HgN/A
9:20 pm37 °FPassing clouds.10 mph93%29.00 "Hg5 mi
8:50 pm37 °FLight rain. Passing clouds.18 mph93%29.00 "Hg3 mi
8:20 pm37 °FLight rain. Passing clouds.17 mph93%29.00 "Hg6 mi
7:50 pm37 °FLight rain. Passing clouds.10 mph93%28.97 "Hg5 mi
7:20 pm37 °FScattered showers. Passing clouds.7 mph87%28.97 "HgN/A
6:50 pm36 °FScattered showers. Passing clouds.8 mph93%28.97 "HgN/A
6:20 pm36 °FSprinkles. Passing clouds.10 mph93%29.00 "Hg6 mi
5:50 pm36 °FScattered showers. Passing clouds.13 mph93%28.97 "HgN/A
5:20 pm36 °FScattered showers. Passing clouds.7 mph93%28.97 "HgN/A
4:50 pm36 °FScattered showers. Passing clouds.8 mph93%28.97 "HgN/A
4:20 pm36 °FScattered showers. Passing clouds.8 mph93%29.00 "HgN/A
3:50 pm36 °FScattered showers. Passing clouds.8 mph93%29.00 "HgN/A
3:20 pm36 °FScattered showers. Scattered clouds.7 mph93%29.00 "HgN/A
2:50 pm34 °FMixture of precip. Scattered clouds.6 mph100%29.00 "HgN/A
2:20 pm34 °FScattered showers. Scattered clouds.7 mph93%29.00 "HgN/A
1:50 pm34 °FScattered showers. Passing clouds.6 mph93%29.00 "HgN/A
1:20 pm34 °FScattered showers. Scattered clouds.7 mph93%29.03 "HgN/A
12:50 pm34 °FScattered showers. Scattered clouds.7 mph100%29.03 "HgN/A
12:20 pm34 °FScattered clouds.5 mph100%29.03 "HgN/A
11:50 am36 °FScattered clouds.3 mph93%29.06 "HgN/A
11:20 am34 °FPassing clouds.9 mph93%29.06 "HgN/A
Weather by CustomWeather, © 2017

See weather overview